Weather Roundup
Issued by NWS

Home | Current Version | Previous Version | Text Only | Print | Product List | Glossary On
Versions: 1 2 3 4 5 6 7 8 9 10 11 12 13 14 15 16 17 18 19 20 21 22 23 24 25 26 27 28 29 30 31 32 33 34 35 36 37 38 39 40 41 42 43 44 45 46 47 48 49 50
000
NZUS93 KARX 220810
HRRWXR

CURRENT HOURLY OBSERVATIONS ACROSS
MUCH OF THE UPPER MISSISSIPPI VALLEY
NATIONAL WEATHER SERVICE LA CROSSE WI
300 AM CDT FRI SEP 22 2017


...SOUTHEAST MINNESOTA...


CITY           SKY/WX    TMP DP  RH WIND       PRES   REMARKS
ROCHESTER      CLEAR     71  68  90 S14       29.90F
ROCHESTER/MAYO FAIR      73  69  89 SE9       29.90S
WINONA         CLEAR     73  70  88 CALM      29.91F
AUSTIN         CLEAR     73  68  83 S12       29.89S
ALBERT LEA     CLEAR     77  70  78 S9        29.87S
DODGE CENTER   CLEAR     73  66  78 S10       29.88F
PRESTON        CLEAR     72  67  87 S13G18    29.92F
OWATONNA       CLEAR     75  70  83 S13       29.85F
FARIBAULT      CLEAR     75  70  83 SE8       29.85F
$$

...ELSEWHERE IN MINNESOTA...


CITY           SKY/WX    TMP DP  RH WIND       PRES   REMARKS
MINNEAPOLIS    CLEAR     75  70  84 SE9       29.82F
INTNL FALLS    PTCLDY    60  58  92 CALM      29.82S
DULUTH         CLOUDY    59  58  96 SE8       29.86F
RED WING       CLOUDY    75  66  73 SE12      29.86F
REDWOOD FALLS  CLEAR     73  69  87 SE9       29.74F
MANKATO        CLEAR     76  70  82 S12       29.81F
WORTHINGTON    CLEAR     74  71  91 S13G21    29.79F
FAIRMONT       CLEAR     74  70  87 S13       29.82S
$$

...SOUTHWEST WISCONSIN...


CITY           SKY/WX    TMP DP  RH WIND       PRES   REMARKS
LA CROSSE      NOT AVBL
PRAIRIE DU CHI CLEAR     78  66  67 S3        29.95S
BOSCOBEL       CLEAR     67  66  97 CALM      29.96F
LONE ROCK      CLEAR     72  68  87 E6        29.97F
PLATTEVILLE    CLEAR     73  70  91 S8        30.00S
FORT MC COY    CLEAR     74  67  79 S5        29.95S
CAMP DOUGLAS   CLEAR     71  68  91 S6        29.96F
MAUSTON-NEW LI SUNNY     69  67  91 CALM      29.96F
VIROQUA        FAIR      70  69  97 CALM      29.97S
WIS DELLS      CLEAR     71  65  81 S7        29.99S
$$

...ELSEWHERE IN WISCONSIN...


CITY           SKY/WX    TMP DP  RH WIND       PRES   REMARKS
MILWAUKEE      CLEAR     69  67  93 S3        30.01F FOG
MADISON        CLEAR     71  67  87 S6        29.99F
GREEN BAY      CLEAR     67  67 100 CALM      29.99F
EAU CLAIRE     PTCLDY    73  66  78 S10       29.90F
BLACK RVR FLS  FAIR      62  62 100 CALM      29.94S
MEDFORD        PTCLDY    65  64  94 S7        29.97F
WAUSAU         CLEAR     66  65  96 SE6       29.97F
WIS RAPIDS     CLEAR     68  65  90 SE3       29.99S
MARSHFIELD     CLEAR     68  63  84 S6        29.97F
RICE LAKE      CLEAR     69  64  86 SE6       29.91F
$$

...NORTHEAST IOWA...


CITY           SKY/WX    TMP DP  RH WIND       PRES   REMARKS
WATERLOO       CLEAR     73  69  87 SE12      29.91S
DUBUQUE        CLEAR     72  68  87 S13       29.99S
DECORAH        CLEAR     75  70  83 S8G14     29.93F
MASON CITY     CLEAR     72  68  87 S10       29.90F
CHARLES CITY   CLEAR     75  72  88 S10       29.92S
OELWEIN        CLEAR     75  72  88 S13       29.95S
$$

...ELSEWHERE IN IOWA...


CITY           SKY/WX    TMP DP  RH WIND       PRES   REMARKS
DES MOINES     PTCLDY    78  70  76 S10       29.89S
IOWA CITY      PTCLDY    72  68  87 SE5       29.97S
FORT DODGE     CLEAR     78  70  76 S14       29.86S
MARSHALLTOWN   CLEAR     74  71  91 SE8       29.91S
CEDAR RAPIDS   CLEAR     75  69  81 S9        29.96R
$$

...NORTHERN ILLINOIS...


CITY           SKY/WX    TMP DP  RH WIND       PRES   REMARKS
CHICAGO-OHARE  CLOUDY    77  68  73 S5        30.03R
CHICAGO-MIDWAY MOCLDY    79  68  69 S7        30.03S
MOLINE         CLEAR     76  68  76 S7        29.99R
ROCKFORD       PTCLDY    70  67  90 S3        30.03S
PEORIA         CLEAR     74  68  81 S7        30.02S
$$

NOTE: "FAIR" INDICATES FEW OR NO CLOUDS BELOW 12,000 FEET WITH NO
SIGNIFICANT WEATHER AND/OR OBSTRUCTIONS TO VISIBILITY. WIND
SPEEDS ARE IN MILES-PER-HOUR.




USA.gov is the U.S. government's official web portal to all federal, state and local government web resources and services.